Location: Godiavel Galaoual
(15.2485°N, 12.6604°W)
Time: 18:44:41
(UTC+00:00)

Explorer 7 - Visible Passes

Search period start: 18 June 2021 00:00
Search period end: 28 June 2021 00:00
Orbit: 484 x 677 km, 50.3° (Epoch: 18 June)

Date Brightness Start Highest point End Pass type
(mag) Time Alt. Az. Time Alt. Az. Time Alt. Az.
18 Jun 8.1 20:21:29 10° SW 20:26:10 52° NW 20:30:56 10° NNE visible
19 Jun 10.0 04:58:38 10° N 05:01:09 15° NE 05:03:36 10° E visible
19 Jun 9.4 20:26:24 10° WSW 20:30:34 29° NW 20:34:47 10° NNE visible
20 Jun 9.0 05:01:57 10° NNW 05:05:39 29° NE 05:09:09 10° ESE visible
20 Jun 10.3 20:31:59 10° W 20:35:02 17° NW 20:38:08 10° N visible
21 Jun 7.4 05:05:51 10° NNW 05:10:02 59° NE 05:13:58 10° SE visible
22 Jun 10.3 03:33:21 10° NE 03:33:33 10° NE 03:33:46 10° NE visible
22 Jun 6.7 05:10:08 10° NW 05:14:20 64° SW 05:18:17 10° SSE visible
23 Jun 9.5 03:35:01 10° N 03:38:07 19° NE 03:41:05 10° E visible
23 Jun 7.5 05:15:03 11° WNW 05:18:34 30° SW 05:22:05 10° S visible
